Regional Weather Roundup
Issued by NWS

Home | Current Version | Previous Version | Text Only | Print | Product List | Glossary On
Versions: 1 2 3 4 5 6 7 8 9 10 11 12 13 14 15 16 17 18 19 20 21 22 23 24 25 26 27 28 29 30 31 32 33 34 35 36 37 38 39 40 41 42 43 44 45 46 47 48 49 50
000
ASUS44 KFWD 290515
RWRTX
NORTH TEXAS HOURLY WEATHER ROUNDUP
NATIONAL WEATHER SERVICE FORT WORTH TX
1200 AM CDT THU JUN 29 2017

NOTE: "FAIR" INDICATES FEW OR NO CLOUDS BELOW 12,000 FEET WITH NO
SIGNIFICANT WEATHER AND/OR OBSTRUCTIONS TO VISIBILITY.

TXZ118-119-290600-
DALLAS/FORT WORTH METROPLEX

CITY           SKY/WX    TMP DP  RH WIND       PRES   REMARKS
DFW AIRPORT    CLEAR     81  70  69 SE10      29.86S
DALLAS LOVE    CLEAR     82  70  66 SE13      29.87S
FTW MEACHAM    CLEAR     81  71  71 SE12      29.87S
DAL-EXECUTIVE  CLEAR     79  71  76 SE8       29.87F
FTW-ALLIANCE   CLEAR     79  70  74 SE8       29.87S
FTW-NAS-JRB      N/A    N/A N/A N/A MISG      29.87S
FTW-SPINKS     CLEAR     77  70  79 SE7       29.89S
ARLINGTON      CLEAR     79  71  76 SE8       29.88S
GRAND PRAIRIE  CLEAR     79  68  68 E6        29.89S
ADDISON        CLEAR     80  69  69 SE10G16   29.89S
MESQUITE       CLEAR     76  70  81 SE5       29.89S
LANCASTER      CLEAR     75  70  83 SE3       29.89S
$$

TXZ091>094-102>105-117-120-121-131>134-290600-
NORTH CENTRAL TEXAS

CITY           SKY/WX    TMP DP  RH WIND       PRES   REMARKS
SHRMAN/DENISON CLEAR     78  68  72 SE12      29.88F
GAINESVILLE    CLEAR     74  68  81 SE6       29.89S
BOWIE          CLEAR     76  69  78 SE6       29.87S
BRIDGEPORT     CLEAR     76  67  72 SE5       29.88S
DECATUR        CLEAR     78  68  71 SE8       29.88S
DENTON         CLEAR     77  70  79 SE8       29.86F
MCKINNEY       CLEAR     77  72  84 SE9       29.88S
BONHAM         CLEAR     77  70  78 SE9       29.89F
GREENVILLE     CLEAR     77  72  83 SE7       29.90S
ROCKWALL       CLEAR     77  69  77 E7        29.89S
TERRELL        CLEAR     77  69  76 E6        29.89S
WAXAHACHIE     CLEAR     76  71  82 CALM      29.90S
CLEBURNE       CLEAR     77  72  83 SE10      29.90S
GRANBURY       CLEAR     79  69  72 SE5       29.89R
$$

TXZ083>090-098>101-113>116-127>130-139>142-154-155-290600-
WESTERN NORTH TEXAS

CITY           SKY/WX    TMP DP  RH WIND       PRES   REMARKS
WICHITA FALLS  CLEAR     77  67  71 S16       29.82F
WF-KICKAPOO    CLEAR     78  68  71 SE13      29.86S
VERNON         CLEAR     81  62  52 S16       29.81S
ABILENE        CLEAR     77  66  68 S13       29.87R
ABILENE-DYESS  CLEAR     79  66  64 SE17      29.85S
GRAHAM         CLEAR     76  67  72 SE5       29.84S
BRECKENRIDGE   CLEAR     79  66  65 SE12      29.85F
CISCO          CLEAR     75  68  78 SE10      29.89R
EASTLAND       CLEAR     75  68  78 SE8       29.88S
RANGER         CLEAR     74  67  78 S8        29.89F
MINERAL WELLS  CLEAR     75  67  76 S6        29.86S
STEPHENVILLE   CLEAR     74  66  75 CALM      29.93R
COMANCHE       CLEAR     74  68  83 S7        29.90S
BROWNWOOD      PTCLDY    73  68  83 SE7       29.89R
COLEMAN        CLEAR     78  64  61 S8        29.89S
$$

TXZ143>147-156>162-174-175-290600-
CENTRAL TEXAS

CITY           SKY/WX    TMP DP  RH WIND       PRES   REMARKS
WACO           CLEAR     77  70  79 SE7       29.88R
WACO-MCGREGOR  CLEAR     77  70  79 SE6       29.89R
HILLSBORO      CLEAR     77  71  81 E8        29.89S
CORSICANA      CLEAR     79  72  79 SE8       29.90R
MEXIA          CLEAR     75  69  84 S7        29.89R
HEARNE         CLEAR     77  74  91 SE5       29.89S
CAMERON        CLEAR     79  72  77 SE7       29.88R
TEMPLE         CLEAR     79  71  76 SE8       29.89R
KILLEEN        CLEAR     76  70  81 SE8       29.88R
KILLEEN-SKYLRK PTCLDY    79  71  76 SE8       29.89R
FORT HOOD      CLEAR     78  69  74 SE8       29.86R
HAMILTON       CLEAR     74  68  80 SE7       29.90S
LAMPASAS       CLEAR     76  71  84 CALM      29.89S
$$

TXZ095>097-106>112-122>126-135>138-148>153-164>167-290600-
EAST TEXAS

CITY           SKY/WX    TMP DP  RH WIND       PRES   REMARKS
PARIS            N/A     74  70  87 SE7       29.91S
SULPHUR SPRNGS CLEAR     77  69  76 SE6       29.92F
MOUNT PLEASANT CLEAR     74  69  83 CALM      29.92S
GILMER         CLEAR     76  70  83 CALM      29.91S
MINEOLA        CLEAR     73  70  88 CALM      29.90F
TYLER          CLEAR     78  73  84 SE8       29.91R
LONGVIEW       CLEAR     77  73  87 S7        29.90R
MARSHALL         N/A     75  70  84 CALM      29.93F
ATHENS         CLEAR     73  70  88 SE3       29.89S
PALESTINE      CLEAR     77  72  84 SE7       29.91S
JACKSONVILLE   CLEAR     76  72  87 S8        29.94S
HENDERSON      CLEAR     75  72  89 CALM      29.92S
CENTER         CLEAR     78  76  92 CALM      29.93S
NACOGDOCHES    CLEAR     72  70  94 SE3       29.90S
LUFKIN         CLEAR     74  71  91 E5        29.91R
$$

SUPPLEMENTAL OBSERVATIONS (NWS FORT WORTH AREA)

CITY           SKY/WX    TMP DP  RH WIND       PRES   REMARKS
DENISON DAM      N/A     79  68  69 SE6         N/A
CADDO GRASSLND   N/A     77  68  73 S5          N/A
PAT MAYSE LAKE   N/A     77  72  83 SE10        N/A
GREENVILLE       N/A     75  68  78 SE5         N/A
CEDAR HILL       N/A     77  68  73 SE5         N/A
LBJ GRASSLAND    N/A     79  66  65 SE8         N/A
POSSUM KINGDOM   N/A     79  66  65 SE8         N/A
GRANBURY         N/A     79  68  69 SE7         N/A
MCGREGOR         N/A     79  70  73 SE7         N/A
TEMPLE           N/A     79  70  73 SE5         N/A
$$

SUPPLEMENTAL OBSERVATIONS (NWS NORMAN AREA)

CITY           SKY/WX    TMP DP  RH WIND       PRES   REMARKS
GOODLETT         N/A     80  63  55 SE18      29.79S
ODELL            N/A     80  67  64 SE16      29.81F
CROWELL          N/A     80  67  63 S15       29.82S
KNOX CITY        N/A     81  63  54 SE16      29.82F
SEYMOUR          N/A     80  65  61 SE13G20   29.83S
MILLERS CREEK    N/A     79  68  69 SE13        N/A
$$

SUPPLEMENTAL OBSERVATIONS (NWS SAN ANGELO AREA)

CITY           SKY/WX    TMP DP  RH WIND       PRES   REMARKS
WEINERT          N/A     80  66  63 SE17      29.83F
HASKELL          N/A     80  62  55 SE14      29.84S
THROCKMORTON     N/A     76  68  77 SE9       29.86S
STAMFORD         N/A     80  65  61 SE12      29.85S
CLYDE            N/A     76  65  70 S12       29.89F
HAMBY            N/A     79  64  61 S12         N/A
IVIE RESERVOIR   N/A     75  64  69 SE9         N/A
COLORADO BEND    N/A     73  66  78 S5          N/A
$$

SUPPLEMENTAL OBSERVATIONS (NWS SHREVEPORT AREA)

CITY           SKY/WX    TMP DP  RH WIND       PRES   REMARKS
CLARKSVILLE      N/A     77  68  73 SE6         N/A
GILMER           N/A     73  70  88 CALM        N/A
HENDERSON        N/A     75  70  83 S2          N/A
LUFKIN           N/A     75  72  88 MISG        N/A
N SABINE NF      N/A     73  70  88 MISG        N/A
S SABINE NF      N/A     75  70  83 S3          N/A
$$

SUPPLEMENTAL OBSERVATIONS ARE A COLLECTION OF AUTOMATED INSTRUMENTS
THAT ARE MAINTAINED BY A VARIETY OF FEDERAL AND STATE AGENCIES.
CERTAIN ELEMENTS...SUCH AS HUMIDITY VALUES AND SUSTAINED WIND
SPEEDS...MAY BE APPROXIMATED.




USA.gov is the U.S. government's official web portal to all federal, state and local government web resources and services.